Retour au catalogue

COSMOS 1275 DEB

ActifPO
NORAD 12730·DEBRIS·🇷🇺 Russia

Lancé Jun 4, 1981 depuis Plesetsk Cosmodrome

Loading…

Prochains Passages (prochaines 24 heures)

TLE

FraisSource: Space-Track

Époque: Sep 14, 2026, 10:02 UTC

1 12730U 81053BX  26257.41850844  .00002286  00000-0  76512-3 0  9998
2 12730  82.9355 299.3728 0016455 167.0437 253.1211 14.36960725309927

Suivez COSMOS 1275 DEB en temps réel avec AllMySat

Download on the App Store